Year,Month,Day,Hour,Minute,Value (Times are PST for temperature in C)
2015,09,28,00,00,8.80
2015,09,28,00,01,8.80
2015,09,28,00,02,8.80
2015,09,28,00,03,8.70
2015,09,28,00,04,8.70
2015,09,28,00,05,8.70
2015,09,28,00,06,8.70
2015,09,28,00,07,8.70
2015,09,28,00,08,8.70
2015,09,28,00,09,8.70
2015,09,28,00,10,8.70
2015,09,28,00,11,8.60
2015,09,28,00,12,8.60
2015,09,28,00,13,8.60
2015,09,28,00,14,8.60
2015,09,28,00,15,8.60
2015,09,28,00,16,8.60
2015,09,28,00,17,8.60
2015,09,28,00,18,8.60
2015,09,28,00,19,8.50
2015,09,28,00,20,8.50
2015,09,28,00,21,8.50
2015,09,28,00,22,8.50
2015,09,28,00,23,8.50
2015,09,28,00,24,8.40
2015,09,28,00,25,8.40
2015,09,28,00,26,8.40
2015,09,28,00,27,8.40
2015,09,28,00,28,8.40
2015,09,28,00,29,8.40
2015,09,28,00,30,8.40
2015,09,28,00,31,8.40
2015,09,28,00,32,8.40
2015,09,28,00,33,8.40
2015,09,28,00,34,8.40
2015,09,28,00,35,8.40
2015,09,28,00,36,8.40
2015,09,28,00,37,8.40
2015,09,28,00,38,8.30
2015,09,28,00,39,8.30
2015,09,28,00,40,8.30
2015,09,28,00,41,8.30
2015,09,28,00,42,8.30
2015,09,28,00,43,8.30
2015,09,28,00,44,8.30
2015,09,28,00,45,8.30
2015,09,28,00,46,8.30
2015,09,28,00,47,8.30
2015,09,28,00,48,8.30
2015,09,28,00,49,8.30
2015,09,28,00,50,8.20
2015,09,28,00,51,8.20
2015,09,28,00,52,8.20
2015,09,28,00,53,8.20
2015,09,28,00,54,8.20
2015,09,28,00,55,8.20
2015,09,28,00,56,8.20
2015,09,28,00,57,8.20
2015,09,28,00,58,8.20
2015,09,28,00,59,8.20
2015,09,28,01,00,8.20
2015,09,28,01,01,8.20
2015,09,28,01,02,8.20
2015,09,28,01,03,8.20
2015,09,28,01,04,8.20
2015,09,28,01,05,8.20
2015,09,28,01,06,8.20
2015,09,28,01,07,8.20
2015,09,28,01,08,8.20
2015,09,28,01,09,8.20
2015,09,28,01,10,8.20
2015,09,28,01,11,8.20
2015,09,28,01,12,8.20
2015,09,28,01,13,8.20
2015,09,28,01,14,8.20
2015,09,28,01,15,8.20
2015,09,28,01,16,8.20
2015,09,28,01,17,8.20
2015,09,28,01,18,8.20
2015,09,28,01,19,8.20
2015,09,28,01,20,8.20
2015,09,28,01,21,8.20
2015,09,28,01,22,8.20
2015,09,28,01,23,8.20
2015,09,28,01,24,8.20
2015,09,28,01,25,8.20
2015,09,28,01,26,8.20
2015,09,28,01,27,8.20
2015,09,28,01,28,8.30
2015,09,28,01,29,8.30
2015,09,28,01,30,8.30
2015,09,28,01,31,8.30
2015,09,28,01,32,8.30
2015,09,28,01,33,8.30
2015,09,28,01,34,8.30
2015,09,28,01,35,8.30
2015,09,28,01,36,8.30
2015,09,28,01,37,8.30
2015,09,28,01,38,8.30
2015,09,28,01,39,8.30
2015,09,28,01,40,8.30
2015,09,28,01,41,8.30
2015,09,28,01,42,8.30
2015,09,28,01,43,8.30
2015,09,28,01,44,8.30
2015,09,28,01,45,8.30
2015,09,28,01,46,8.30
2015,09,28,01,47,8.30
2015,09,28,01,48,8.30
2015,09,28,01,49,8.30
2015,09,28,01,50,8.30
2015,09,28,01,51,8.30
2015,09,28,01,52,8.40
2015,09,28,01,53,8.40
2015,09,28,01,54,8.40
2015,09,28,01,55,8.40
2015,09,28,01,56,8.40
2015,09,28,01,57,8.40
2015,09,28,01,58,8.40
2015,09,28,01,59,8.30
2015,09,28,02,00,8.30
2015,09,28,02,01,8.30
2015,09,28,02,02,8.30
2015,09,28,02,03,8.30
2015,09,28,02,04,8.20
2015,09,28,02,05,8.20
2015,09,28,02,06,8.20
2015,09,28,02,07,8.10
2015,09,28,02,08,8.10
2015,09,28,02,09,8.10
2015,09,28,02,10,8.10
2015,09,28,02,11,8.00
2015,09,28,02,12,8.00
2015,09,28,02,13,8.00
2015,09,28,02,14,7.90
2015,09,28,02,15,7.90
2015,09,28,02,16,7.90
2015,09,28,02,17,7.90
2015,09,28,02,18,7.80
2015,09,28,02,19,7.80
2015,09,28,02,20,7.80
2015,09,28,02,21,7.80
2015,09,28,02,22,7.80
2015,09,28,02,23,7.80
2015,09,28,02,24,7.70
2015,09,28,02,25,7.70
2015,09,28,02,26,7.70
2015,09,28,02,27,7.70
2015,09,28,02,28,7.70
2015,09,28,02,29,7.70
2015,09,28,02,30,7.60
2015,09,28,02,31,7.60
2015,09,28,02,32,7.60
2015,09,28,02,33,7.60
2015,09,28,02,34,7.60
2015,09,28,02,35,7.60
2015,09,28,02,36,7.50
2015,09,28,02,37,7.50
2015,09,28,02,38,7.50
2015,09,28,02,39,7.50
2015,09,28,02,40,7.50
2015,09,28,02,41,7.50
2015,09,28,02,42,7.50
2015,09,28,02,43,7.50
2015,09,28,02,44,7.50
2015,09,28,02,45,7.50
2015,09,28,02,46,7.40
2015,09,28,02,47,7.40
2015,09,28,02,48,7.40
2015,09,28,02,49,7.40
2015,09,28,02,50,7.40
2015,09,28,02,51,7.40
2015,09,28,02,52,7.40
2015,09,28,02,53,7.40
2015,09,28,02,54,7.40
2015,09,28,02,55,7.40
2015,09,28,02,56,7.40
2015,09,28,02,57,7.40
2015,09,28,02,58,7.40
2015,09,28,02,59,7.40
2015,09,28,03,00,7.40
2015,09,28,03,01,7.40
2015,09,28,03,02,7.30
2015,09,28,03,03,7.30
2015,09,28,03,04,7.30
2015,09,28,03,05,7.30
2015,09,28,03,06,7.30
2015,09,28,03,07,7.30
2015,09,28,03,08,7.30
2015,09,28,03,09,7.30
2015,09,28,03,10,7.20
2015,09,28,03,11,7.20
2015,09,28,03,12,7.20
2015,09,28,03,13,7.20
2015,09,28,03,14,7.20
2015,09,28,03,15,7.20
2015,09,28,03,16,7.20
2015,09,28,03,17,7.20
2015,09,28,03,18,7.20
2015,09,28,03,19,7.20
2015,09,28,03,20,7.20
2015,09,28,03,21,7.20
2015,09,28,03,22,7.20
2015,09,28,03,23,7.20
2015,09,28,03,24,7.20
2015,09,28,03,25,7.20
2015,09,28,03,26,7.30
2015,09,28,03,27,7.30
2015,09,28,03,28,7.30
2015,09,28,03,29,7.30
2015,09,28,03,30,7.20
2015,09,28,03,31,7.20
2015,09,28,03,32,7.20
2015,09,28,03,33,7.20
2015,09,28,03,34,7.20
2015,09,28,03,35,7.20
2015,09,28,03,36,7.30
2015,09,28,03,37,7.30
2015,09,28,03,38,7.30
2015,09,28,03,39,7.30
2015,09,28,03,40,7.40
2015,09,28,03,41,7.40
2015,09,28,03,42,7.40
2015,09,28,03,43,7.40
2015,09,28,03,44,7.40
2015,09,28,03,45,7.40
2015,09,28,03,46,7.50
2015,09,28,03,47,7.50
2015,09,28,03,48,7.50
2015,09,28,03,49,7.50
2015,09,28,03,50,7.50
2015,09,28,03,51,7.50
2015,09,28,03,52,7.50
2015,09,28,03,53,7.50
2015,09,28,03,54,7.50
2015,09,28,03,55,7.50
2015,09,28,03,56,7.50
2015,09,28,03,57,7.50
2015,09,28,03,58,7.50
2015,09,28,03,59,7.50
2015,09,28,04,00,7.50
2015,09,28,04,01,7.50
2015,09,28,04,02,7.50
2015,09,28,04,03,7.50
2015,09,28,04,04,7.40
2015,09,28,04,05,7.40
2015,09,28,04,06,7.40
2015,09,28,04,07,7.40
2015,09,28,04,08,7.40
2015,09,28,04,09,7.30
2015,09,28,04,10,7.30
2015,09,28,04,11,7.30
2015,09,28,04,12,7.30
2015,09,28,04,13,7.30
2015,09,28,04,14,7.30
2015,09,28,04,15,7.30
2015,09,28,04,16,7.20
2015,09,28,04,17,7.20
2015,09,28,04,18,7.20
2015,09,28,04,19,7.20
2015,09,28,04,20,7.20
2015,09,28,04,21,7.10
2015,09,28,04,22,7.10
2015,09,28,04,23,7.10
2015,09,28,04,24,7.10
2015,09,28,04,25,7.10
2015,09,28,04,26,7.10
2015,09,28,04,27,7.10
2015,09,28,04,28,7.10
2015,09,28,04,29,7.10
2015,09,28,04,30,7.10
2015,09,28,04,31,7.00
2015,09,28,04,32,7.00
2015,09,28,04,33,7.00
2015,09,28,04,34,7.00
2015,09,28,04,35,7.00
2015,09,28,04,36,7.00
2015,09,28,04,37,7.00
2015,09,28,04,38,7.00
2015,09,28,04,39,7.00
2015,09,28,04,40,7.00
2015,09,28,04,41,7.00
2015,09,28,04,42,7.00
2015,09,28,04,43,7.00
2015,09,28,04,44,7.00
2015,09,28,04,45,7.00
2015,09,28,04,46,7.00
2015,09,28,04,47,7.00
2015,09,28,04,48,7.00
2015,09,28,04,49,7.00
2015,09,28,04,50,7.00
2015,09,28,04,51,7.00
2015,09,28,04,52,6.90
2015,09,28,04,53,6.90
2015,09,28,04,54,6.90
2015,09,28,04,55,6.90
2015,09,28,04,56,6.90
2015,09,28,04,57,6.90
2015,09,28,04,58,6.80
2015,09,28,04,59,6.80
2015,09,28,05,00,6.80
2015,09,28,05,01,6.80
2015,09,28,05,02,6.80
2015,09,28,05,03,6.80
2015,09,28,05,04,6.80
2015,09,28,05,05,6.80
2015,09,28,05,06,6.80
2015,09,28,05,07,6.80
2015,09,28,05,08,6.70
2015,09,28,05,09,6.70
2015,09,28,05,10,6.70
2015,09,28,05,11,6.70
2015,09,28,05,12,6.70
2015,09,28,05,13,6.70
2015,09,28,05,14,6.70
2015,09,28,05,15,6.70
2015,09,28,05,16,6.70
2015,09,28,05,17,6.70
2015,09,28,05,18,6.70
2015,09,28,05,19,6.70
2015,09,28,05,20,6.60
2015,09,28,05,21,6.60
2015,09,28,05,22,6.60
2015,09,28,05,23,6.60
2015,09,28,05,24,6.60
2015,09,28,05,25,6.60
2015,09,28,05,26,6.60
2015,09,28,05,27,6.60
2015,09,28,05,28,6.60
2015,09,28,05,29,6.60
2015,09,28,05,30,6.60
2015,09,28,05,31,6.60
2015,09,28,05,32,6.60
2015,09,28,05,33,6.60
2015,09,28,05,34,6.60
2015,09,28,05,35,6.60
2015,09,28,05,36,6.60
2015,09,28,05,37,6.60
2015,09,28,05,38,6.60
2015,09,28,05,39,6.60
2015,09,28,05,40,6.60
2015,09,28,05,41,6.60
2015,09,28,05,42,6.60
2015,09,28,05,43,6.60
2015,09,28,05,44,6.60
2015,09,28,05,45,6.50
2015,09,28,05,46,6.50
2015,09,28,05,47,6.50
2015,09,28,05,48,6.50
2015,09,28,05,49,6.50
2015,09,28,05,50,6.50
2015,09,28,05,51,6.50
2015,09,28,05,52,6.40
2015,09,28,05,53,6.40
2015,09,28,05,54,6.40
2015,09,28,05,55,6.40
2015,09,28,05,56,6.50
2015,09,28,05,57,6.40
2015,09,28,05,58,6.40
2015,09,28,05,59,6.40
2015,09,28,06,00,6.40
2015,09,28,06,01,6.40
2015,09,28,06,02,6.40
2015,09,28,06,03,6.40
2015,09,28,06,04,6.40
2015,09,28,06,05,6.40
2015,09,28,06,06,6.40
2015,09,28,06,07,6.40
2015,09,28,06,08,6.40
2015,09,28,06,09,6.40
2015,09,28,06,10,6.40
2015,09,28,06,11,6.40
2015,09,28,06,12,6.40
2015,09,28,06,13,6.40
2015,09,28,06,14,6.40
2015,09,28,06,15,6.40
2015,09,28,06,16,6.40
2015,09,28,06,17,6.40
2015,09,28,06,18,6.40
2015,09,28,06,19,6.40
2015,09,28,06,20,6.50
2015,09,28,06,21,6.50
2015,09,28,06,22,6.50
2015,09,28,06,23,6.50
2015,09,28,06,24,6.50
2015,09,28,06,25,6.50
2015,09,28,06,26,6.50
2015,09,28,06,27,6.50
2015,09,28,06,28,6.40
2015,09,28,06,29,6.40
2015,09,28,06,30,6.40
2015,09,28,06,31,6.40
2015,09,28,06,32,6.40
2015,09,28,06,33,6.40
2015,09,28,06,34,6.40
2015,09,28,06,35,6.40
2015,09,28,06,36,6.40
2015,09,28,06,37,6.40
2015,09,28,06,38,6.40
2015,09,28,06,39,6.40
2015,09,28,06,40,6.40
2015,09,28,06,41,6.40
2015,09,28,06,42,6.30
2015,09,28,06,43,6.30
2015,09,28,06,44,6.30
2015,09,28,06,45,6.30
2015,09,28,06,46,6.30
2015,09,28,06,47,6.30
2015,09,28,06,48,6.30
2015,09,28,06,49,6.30
2015,09,28,06,50,6.30
2015,09,28,06,51,6.30
2015,09,28,06,52,6.20
2015,09,28,06,53,6.20
2015,09,28,06,54,6.20
2015,09,28,06,55,6.20
2015,09,28,06,56,6.20
2015,09,28,06,57,6.20
2015,09,28,06,58,6.20
2015,09,28,06,59,6.20
2015,09,28,07,00,6.30
2015,09,28,07,01,6.30
2015,09,28,07,02,6.30
2015,09,28,07,03,6.40
2015,09,28,07,04,6.40
2015,09,28,07,05,6.40
2015,09,28,07,06,6.50
2015,09,28,07,07,6.50
2015,09,28,07,08,6.60
2015,09,28,07,09,6.60
2015,09,28,07,10,6.60
2015,09,28,07,11,6.60
2015,09,28,07,12,6.60
2015,09,28,07,13,6.60
2015,09,28,07,14,6.80
2015,09,28,07,15,7.10
2015,09,28,07,16,7.10
2015,09,28,07,17,7.10
2015,09,28,07,18,7.10
2015,09,28,07,19,7.10
2015,09,28,07,20,7.10
2015,09,28,07,21,7.00
2015,09,28,07,22,7.00
2015,09,28,07,23,7.00
2015,09,28,07,24,6.90
2015,09,28,07,25,6.90
2015,09,28,07,26,6.90
2015,09,28,07,27,7.00
2015,09,28,07,28,7.00
2015,09,28,07,29,7.00
2015,09,28,07,30,7.00
2015,09,28,07,31,7.00
2015,09,28,07,32,7.00
2015,09,28,07,33,6.90
2015,09,28,07,34,6.90
2015,09,28,07,35,6.90
2015,09,28,07,36,6.90
2015,09,28,07,37,6.90
2015,09,28,07,38,6.90
2015,09,28,07,39,6.90
2015,09,28,07,40,6.90
2015,09,28,07,41,6.80
2015,09,28,07,42,6.80
2015,09,28,07,43,6.80
2015,09,28,07,44,6.80
2015,09,28,07,45,6.90
2015,09,28,07,46,6.90
2015,09,28,07,47,6.90
2015,09,28,07,48,7.00
2015,09,28,07,49,7.10
2015,09,28,07,50,7.20
2015,09,28,07,51,7.20
2015,09,28,07,52,7.30
2015,09,28,07,53,7.30
2015,09,28,07,54,7.30
2015,09,28,07,55,7.30
2015,09,28,07,56,7.30
2015,09,28,07,57,7.30
2015,09,28,07,58,7.40
2015,09,28,07,59,7.40
2015,09,28,08,00,7.40
2015,09,28,08,01,7.50
2015,09,28,08,02,7.50
2015,09,28,08,03,7.60
2015,09,28,08,04,7.60
2015,09,28,08,05,7.60
2015,09,28,08,06,7.70
2015,09,28,08,07,7.80
2015,09,28,08,08,7.80
2015,09,28,08,09,7.90
2015,09,28,08,10,8.00
2015,09,28,08,11,8.10
2015,09,28,08,12,8.10
2015,09,28,08,13,8.20
2015,09,28,08,14,8.30
2015,09,28,08,15,8.40
2015,09,28,08,16,8.50
2015,09,28,08,17,8.50
2015,09,28,08,18,8.60
2015,09,28,08,19,8.70
2015,09,28,08,20,8.80
2015,09,28,08,21,8.90
2015,09,28,08,22,9.00
2015,09,28,08,23,9.00
2015,09,28,08,24,9.10
2015,09,28,08,25,9.20
2015,09,28,08,26,9.30
2015,09,28,08,27,9.30
2015,09,28,08,28,9.40
2015,09,28,08,29,9.50
2015,09,28,08,30,9.60
2015,09,28,08,31,9.60
2015,09,28,08,32,9.70
2015,09,28,08,33,9.80
2015,09,28,08,34,9.80
2015,09,28,08,35,9.90
2015,09,28,08,36,10.00
2015,09,28,08,37,10.00
2015,09,28,08,38,10.10
2015,09,28,08,39,10.20
2015,09,28,08,40,10.30
2015,09,28,08,41,10.40
2015,09,28,08,42,10.50
2015,09,28,08,43,10.60
2015,09,28,08,44,10.60
2015,09,28,08,45,10.70
2015,09,28,08,46,10.80
2015,09,28,08,47,10.90
2015,09,28,08,48,11.00
2015,09,28,08,49,11.10
2015,09,28,08,50,11.20
2015,09,28,08,51,11.30
2015,09,28,08,52,11.30
2015,09,28,08,53,11.40
2015,09,28,08,54,11.40
2015,09,28,08,55,11.50
2015,09,28,08,56,11.50
2015,09,28,08,57,11.60
2015,09,28,08,58,11.60
2015,09,28,08,59,11.60
2015,09,28,09,00,11.70
2015,09,28,09,01,11.70
2015,09,28,09,02,11.80
2015,09,28,09,03,11.80
2015,09,28,09,04,11.90
2015,09,28,09,05,11.90
2015,09,28,09,06,12.00
2015,09,28,09,07,12.10
2015,09,28,09,08,12.10
2015,09,28,09,09,12.20
2015,09,28,09,10,12.20
2015,09,28,09,11,12.20
2015,09,28,09,12,12.20
2015,09,28,09,13,12.30
2015,09,28,09,14,12.30
2015,09,28,09,15,12.40
2015,09,28,09,16,12.40
2015,09,28,09,17,12.50
2015,09,28,09,18,12.60
2015,09,28,09,19,12.60
2015,09,28,09,20,12.70
2015,09,28,09,21,12.70
2015,09,28,09,22,12.80
2015,09,28,09,23,12.80
2015,09,28,09,24,12.80
2015,09,28,09,25,12.90
2015,09,28,09,26,12.90
2015,09,28,09,27,13.00
2015,09,28,09,28,13.10
2015,09,28,09,29,13.10
2015,09,28,09,30,13.20
2015,09,28,09,31,13.20
2015,09,28,09,32,13.30
2015,09,28,09,33,13.30
2015,09,28,09,34,13.40
2015,09,28,09,35,13.40
2015,09,28,09,36,13.50
2015,09,28,09,37,13.60
2015,09,28,09,38,13.60
2015,09,28,09,39,13.70
2015,09,28,09,40,13.70
2015,09,28,09,41,13.80
2015,09,28,09,42,13.80
2015,09,28,09,43,13.90
2015,09,28,09,44,14.00
2015,09,28,09,45,14.00
2015,09,28,09,46,14.10
2015,09,28,09,47,14.10
2015,09,28,09,48,14.20
2015,09,28,09,49,14.20
2015,09,28,09,50,14.30
2015,09,28,09,51,14.30
2015,09,28,09,52,14.30
2015,09,28,09,53,14.40
2015,09,28,09,54,14.40
2015,09,28,09,55,14.40
2015,09,28,09,56,14.40
2015,09,28,09,57,14.40
2015,09,28,09,58,14.50
2015,09,28,09,59,14.50
2015,09,28,10,00,14.50
2015,09,28,10,01,14.60
2015,09,28,10,02,14.60
2015,09,28,10,03,14.70
2015,09,28,10,04,14.70
2015,09,28,10,05,14.80
2015,09,28,10,06,14.80
2015,09,28,10,07,14.80
2015,09,28,10,08,14.80
2015,09,28,10,09,14.80
2015,09,28,10,10,14.80
2015,09,28,10,11,14.80
2015,09,28,10,12,14.90
2015,09,28,10,13,15.00
2015,09,28,10,14,15.10
2015,09,28,10,15,15.10
2015,09,28,10,16,15.20
2015,09,28,10,17,15.20
2015,09,28,10,18,15.30
2015,09,28,10,19,15.30
2015,09,28,10,20,15.40
2015,09,28,10,21,15.40
2015,09,28,10,22,15.50
2015,09,28,10,23,15.50
2015,09,28,10,24,15.50
2015,09,28,10,25,15.60
2015,09,28,10,26,15.60
2015,09,28,10,27,15.60
2015,09,28,10,28,15.60
2015,09,28,10,29,15.60
2015,09,28,10,30,15.70
2015,09,28,10,31,15.70
2015,09,28,10,32,15.70
2015,09,28,10,33,15.70
2015,09,28,10,34,15.70
2015,09,28,10,35,15.70
2015,09,28,10,36,15.70
2015,09,28,10,37,15.80
2015,09,28,10,38,15.80
2015,09,28,10,39,15.80
2015,09,28,10,40,15.80
2015,09,28,10,41,15.80
2015,09,28,10,42,15.90
2015,09,28,10,43,15.90
2015,09,28,10,44,15.90
2015,09,28,10,45,15.90
2015,09,28,10,46,15.90
2015,09,28,10,47,15.90
2015,09,28,10,48,15.90
2015,09,28,10,49,15.90
2015,09,28,10,50,15.90
2015,09,28,10,51,15.90
2015,09,28,10,52,15.90
2015,09,28,10,53,15.90
2015,09,28,10,54,15.90
2015,09,28,10,55,15.90
2015,09,28,10,56,15.90
2015,09,28,10,57,15.90
2015,09,28,10,58,15.90
2015,09,28,10,59,15.90
2015,09,28,11,00,15.90
2015,09,28,11,01,15.90
2015,09,28,11,02,15.90
2015,09,28,11,03,15.90
2015,09,28,11,04,15.90
2015,09,28,11,05,15.90
2015,09,28,11,06,15.90
2015,09,28,11,07,15.90
2015,09,28,11,08,15.90
2015,09,28,11,09,15.90
2015,09,28,11,10,15.90
2015,09,28,11,11,15.90
2015,09,28,11,12,16.00
2015,09,28,11,13,16.00
2015,09,28,11,14,16.00
2015,09,28,11,15,15.90
2015,09,28,11,16,15.90
2015,09,28,11,17,15.90
2015,09,28,11,18,16.00
2015,09,28,11,19,16.00
2015,09,28,11,20,16.00
2015,09,28,11,21,16.00
2015,09,28,11,22,16.10
2015,09,28,11,23,16.10
2015,09,28,11,24,16.10
2015,09,28,11,25,16.10
2015,09,28,11,26,16.20
2015,09,28,11,27,16.20
2015,09,28,11,28,16.20
2015,09,28,11,29,16.20
2015,09,28,11,30,16.20
2015,09,28,11,31,16.20
2015,09,28,11,32,16.20
2015,09,28,11,33,16.30
2015,09,28,11,34,16.30
2015,09,28,11,35,16.30
2015,09,28,11,36,16.30
2015,09,28,11,37,16.40
2015,09,28,11,38,16.40
2015,09,28,11,39,16.50
2015,09,28,11,40,16.50
2015,09,28,11,41,16.60
2015,09,28,11,42,16.60
2015,09,28,11,43,16.70
2015,09,28,11,44,16.70
2015,09,28,11,45,16.70
2015,09,28,11,46,16.70
2015,09,28,11,47,16.70
2015,09,28,11,48,16.70
2015,09,28,11,49,16.70
2015,09,28,11,50,16.70
2015,09,28,11,51,16.80
2015,09,28,11,52,16.80
2015,09,28,11,53,16.80
2015,09,28,11,54,16.80
2015,09,28,11,55,16.80
2015,09,28,11,56,16.80
2015,09,28,11,57,16.80
2015,09,28,11,58,16.80
2015,09,28,11,59,16.90
2015,09,28,12,00,16.90
2015,09,28,12,01,16.90
2015,09,28,12,02,17.00
2015,09,28,12,03,17.00
2015,09,28,12,04,17.10
2015,09,28,12,05,17.10
2015,09,28,12,06,17.20
2015,09,28,12,07,17.20
2015,09,28,12,08,17.20
2015,09,28,12,09,17.20
2015,09,28,12,10,17.20
2015,09,28,12,11,17.20
2015,09,28,12,12,17.30
2015,09,28,12,13,17.30
2015,09,28,12,14,17.30
2015,09,28,12,15,17.30
2015,09,28,12,16,17.30
2015,09,28,12,17,17.30
2015,09,28,12,18,17.30
2015,09,28,12,19,17.30
2015,09,28,12,20,17.30
2015,09,28,12,21,17.40
2015,09,28,12,22,17.40
2015,09,28,12,23,17.40
2015,09,28,12,24,17.40
2015,09,28,12,25,17.40
2015,09,28,12,26,17.50
2015,09,28,12,27,17.50
2015,09,28,12,28,17.60
2015,09,28,12,29,17.60
2015,09,28,12,30,17.60
2015,09,28,12,31,17.70
2015,09,28,12,32,17.70
2015,09,28,12,33,17.70
2015,09,28,12,34,17.70
2015,09,28,12,35,17.70
2015,09,28,12,36,17.70
2015,09,28,12,37,17.70
2015,09,28,12,38,17.70
2015,09,28,12,39,17.70
2015,09,28,12,40,17.70
2015,09,28,12,41,17.80
2015,09,28,12,42,17.80
2015,09,28,12,43,17.80
2015,09,28,12,44,17.80
2015,09,28,12,45,17.90
2015,09,28,12,46,17.90
2015,09,28,12,47,17.90
2015,09,28,12,48,18.00
2015,09,28,12,49,18.00
2015,09,28,12,50,18.00
2015,09,28,12,51,18.10
2015,09,28,12,52,18.10
2015,09,28,12,53,18.10
2015,09,28,12,54,18.20
2015,09,28,12,55,18.20
2015,09,28,12,56,18.20
2015,09,28,12,57,18.30
2015,09,28,12,58,18.30
2015,09,28,12,59,18.30
2015,09,28,13,00,18.30
2015,09,28,13,01,18.30
2015,09,28,13,02,18.30
2015,09,28,13,03,18.30
2015,09,28,13,04,18.30
2015,09,28,13,05,18.30
2015,09,28,13,06,18.40
2015,09,28,13,07,18.40
2015,09,28,13,08,18.40
2015,09,28,13,09,18.40
2015,09,28,13,10,18.40
2015,09,28,13,11,18.40
2015,09,28,13,12,18.50
2015,09,28,13,13,18.50
2015,09,28,13,14,18.50
2015,09,28,13,15,18.50
2015,09,28,13,16,18.60
2015,09,28,13,17,18.60
2015,09,28,13,18,18.60
2015,09,28,13,19,18.70
2015,09,28,13,20,18.70
2015,09,28,13,21,18.80
2015,09,28,13,22,18.80
2015,09,28,13,23,18.80
2015,09,28,13,24,18.90
2015,09,28,13,25,18.90
2015,09,28,13,26,18.90
2015,09,28,13,27,19.00
2015,09,28,13,28,19.00
2015,09,28,13,29,19.00
2015,09,28,13,30,19.00
2015,09,28,13,31,19.10
2015,09,28,13,32,19.10
2015,09,28,13,33,19.10
2015,09,28,13,34,19.10
2015,09,28,13,35,19.10
2015,09,28,13,36,19.10
2015,09,28,13,37,19.20
2015,09,28,13,38,19.20
2015,09,28,13,39,19.20
2015,09,28,13,40,19.20
2015,09,28,13,41,19.20
2015,09,28,13,42,19.20
2015,09,28,13,43,19.10
2015,09,28,13,44,19.00
2015,09,28,13,45,19.00
2015,09,28,13,46,18.90
2015,09,28,13,47,18.90
2015,09,28,13,48,18.90
2015,09,28,13,49,18.80
2015,09,28,13,50,18.80
2015,09,28,13,51,18.70
2015,09,28,13,52,18.70
2015,09,28,13,53,18.70
2015,09,28,13,54,18.70
2015,09,28,13,55,18.70
2015,09,28,13,56,18.60
2015,09,28,13,57,18.60
2015,09,28,13,58,18.70
2015,09,28,13,59,18.70
2015,09,28,14,00,18.70
2015,09,28,14,01,18.70
2015,09,28,14,02,18.70
2015,09,28,14,03,18.80
2015,09,28,14,04,18.80
2015,09,28,14,05,18.80
2015,09,28,14,06,18.80
2015,09,28,14,07,18.80
2015,09,28,14,08,18.80
2015,09,28,14,09,18.80
2015,09,28,14,10,18.90
2015,09,28,14,11,18.90
2015,09,28,14,12,18.90
2015,09,28,14,13,18.90
2015,09,28,14,14,18.90
2015,09,28,14,15,18.90
2015,09,28,14,16,19.00
2015,09,28,14,17,19.00
2015,09,28,14,18,19.00
2015,09,28,14,19,19.00
2015,09,28,14,20,18.90
2015,09,28,14,21,18.90
2015,09,28,14,22,18.90
2015,09,28,14,23,18.90
2015,09,28,14,24,18.90
2015,09,28,14,25,18.80
2015,09,28,14,26,18.80
2015,09,28,14,27,18.80
2015,09,28,14,28,18.80
2015,09,28,14,29,18.80
2015,09,28,14,30,18.70
2015,09,28,14,31,18.70
2015,09,28,14,32,18.70
2015,09,28,14,33,18.70
2015,09,28,14,34,18.70
2015,09,28,14,35,18.70
2015,09,28,14,36,18.70
2015,09,28,14,37,18.70
2015,09,28,14,38,18.70
2015,09,28,14,39,18.80
2015,09,28,14,40,18.80
2015,09,28,14,41,18.80
2015,09,28,14,42,18.80
2015,09,28,14,43,18.90
2015,09,28,14,44,18.90
2015,09,28,14,45,18.90
2015,09,28,14,46,18.90
2015,09,28,14,47,19.00
2015,09,28,14,48,19.00
2015,09,28,14,49,19.10
2015,09,28,14,50,19.10
2015,09,28,14,51,19.20
2015,09,28,14,52,19.20
2015,09,28,14,53,19.20
2015,09,28,14,54,19.30
2015,09,28,14,55,19.30
2015,09,28,14,56,19.30
2015,09,28,14,57,19.40
2015,09,28,14,58,19.40
2015,09,28,14,59,19.40
2015,09,28,15,00,19.30
2015,09,28,15,01,19.30
2015,09,28,15,02,19.30
2015,09,28,15,03,19.30
2015,09,28,15,04,19.30
2015,09,28,15,05,19.30
2015,09,28,15,06,19.30
2015,09,28,15,07,19.30
2015,09,28,15,08,19.30
2015,09,28,15,09,19.30
2015,09,28,15,10,19.30
2015,09,28,15,11,19.30
2015,09,28,15,12,19.30
2015,09,28,15,13,19.30
2015,09,28,15,14,19.30
2015,09,28,15,15,19.40
2015,09,28,15,16,19.40
2015,09,28,15,17,19.40
2015,09,28,15,18,19.50
2015,09,28,15,19,19.50
2015,09,28,15,20,19.60
2015,09,28,15,21,19.60
2015,09,28,15,22,19.60
2015,09,28,15,23,19.60
2015,09,28,15,24,19.60
2015,09,28,15,25,19.60
2015,09,28,15,26,19.60
2015,09,28,15,27,19.60
2015,09,28,15,28,19.60
2015,09,28,15,29,19.70
2015,09,28,15,30,19.70
2015,09,28,15,31,19.70
2015,09,28,15,32,19.70
2015,09,28,15,33,19.70
2015,09,28,15,34,19.70
2015,09,28,15,35,19.70
2015,09,28,15,36,19.60
2015,09,28,15,37,19.60
2015,09,28,15,38,19.60
2015,09,28,15,39,19.60
2015,09,28,15,40,19.60
2015,09,28,15,41,19.50
2015,09,28,15,42,19.50
2015,09,28,15,43,19.50
2015,09,28,15,44,19.50
2015,09,28,15,45,19.50
2015,09,28,15,46,19.50
2015,09,28,15,47,19.50
2015,09,28,15,48,19.60
2015,09,28,15,49,19.60
2015,09,28,15,50,19.60
2015,09,28,15,51,19.60
2015,09,28,15,52,19.60
2015,09,28,15,53,19.60
2015,09,28,15,54,19.60
2015,09,28,15,55,19.60
2015,09,28,15,56,19.60
2015,09,28,15,57,19.70
2015,09,28,15,58,19.70
2015,09,28,15,59,19.70
2015,09,28,16,00,19.70
2015,09,28,16,01,19.80
2015,09,28,16,02,19.80
2015,09,28,16,03,19.80
2015,09,28,16,04,19.80
2015,09,28,16,05,19.80
2015,09,28,16,06,19.80
2015,09,28,16,07,19.80
2015,09,28,16,08,19.80
2015,09,28,16,09,19.80
2015,09,28,16,10,19.80
2015,09,28,16,11,19.80
2015,09,28,16,12,19.80
2015,09,28,16,13,19.80
2015,09,28,16,14,19.80
2015,09,28,16,15,19.90
2015,09,28,16,16,19.90
2015,09,28,16,17,19.90
2015,09,28,16,18,19.90
2015,09,28,16,19,19.90
2015,09,28,16,20,19.90
2015,09,28,16,21,19.90
2015,09,28,16,22,19.90
2015,09,28,16,23,19.90
2015,09,28,16,24,19.80
2015,09,28,16,25,19.80
2015,09,28,16,26,19.80
2015,09,28,16,27,19.80
2015,09,28,16,28,19.80
2015,09,28,16,29,19.80
2015,09,28,16,30,19.80
2015,09,28,16,31,19.90
2015,09,28,16,32,19.90
2015,09,28,16,33,19.90
2015,09,28,16,34,19.90
2015,09,28,16,35,19.90
2015,09,28,16,36,19.90
2015,09,28,16,37,20.00
2015,09,28,16,38,20.00
2015,09,28,16,39,20.00
2015,09,28,16,40,20.00
2015,09,28,16,41,19.90
2015,09,28,16,42,19.90
2015,09,28,16,43,19.90
2015,09,28,16,44,19.80
2015,09,28,16,45,19.80
2015,09,28,16,46,19.80
2015,09,28,16,47,19.70
2015,09,28,16,48,19.70
2015,09,28,16,49,19.70
2015,09,28,16,50,19.70
2015,09,28,16,51,19.70
2015,09,28,16,52,19.70
2015,09,28,16,53,19.70
2015,09,28,16,54,19.70
2015,09,28,16,55,19.80
2015,09,28,16,56,19.80
2015,09,28,16,57,19.80
2015,09,28,16,58,19.90
2015,09,28,16,59,19.90
2015,09,28,17,00,19.90
2015,09,28,17,01,19.90
2015,09,28,17,02,19.90
2015,09,28,17,03,19.90
2015,09,28,17,04,19.90
2015,09,28,17,05,20.00
2015,09,28,17,06,20.00
2015,09,28,17,07,20.00
2015,09,28,17,08,20.00
2015,09,28,17,09,20.00
2015,09,28,17,10,20.00
2015,09,28,17,11,20.00
2015,09,28,17,12,20.10
2015,09,28,17,13,20.00
2015,09,28,17,14,20.00
2015,09,28,17,15,19.90
2015,09,28,17,16,19.90
2015,09,28,17,17,19.90
2015,09,28,17,18,19.90
2015,09,28,17,19,19.80
2015,09,28,17,20,19.80
2015,09,28,17,21,19.80
2015,09,28,17,22,19.80
2015,09,28,17,23,19.90
2015,09,28,17,24,19.90
2015,09,28,17,25,19.90
2015,09,28,17,26,20.00
2015,09,28,17,27,20.00
2015,09,28,17,28,20.00
2015,09,28,17,29,20.10
2015,09,28,17,30,20.10
2015,09,28,17,31,20.10
2015,09,28,17,32,20.10
2015,09,28,17,33,20.10
2015,09,28,17,34,20.10
2015,09,28,17,35,20.10
2015,09,28,17,36,20.10
2015,09,28,17,37,20.10
2015,09,28,17,38,20.10
2015,09,28,17,39,20.10
2015,09,28,17,40,20.00
2015,09,28,17,41,19.90